www.pogodaiklimat.ru

Погода и климат >> Архив погоды >> Австралия >> Западная Австралия >> Каррата


ПОГОДА в Каррате

  • Прогноз погоды в Каррате
  • Монитор погоды в Каррате

АРХИВ ПОГОДЫ в Каррате

Время (UTC), дата Ветер
(напр.,м/с)
 
Видим.   Явления Облачность Т
(С)
Тd
(С)
f
(%)
Тe
(С)
Тes
(С)
Комфортность P
(гПа)
Po
(гПа)
Тmin
(С)
Tmax
(С)
R
(мм)
R24
(мм)
S
(см)
04 17.02 СВ 5 н/о 1/0
[]
+35.1 +26.2 60 +51 +63 опасность
перегрева
1007.0 1006.4
06 17.02 СВ 5 н/о н/о +36.2 +26.3 57 +52 +52 опасность
перегрева
1005.4 1004.8
07 17.02 СВ 5 н/о 1/0
[]
+36.8 +26.6 56 +54 +61 опасность
перегрева
1005.0 1004.4
09 17.02 СЗ 5 н/о н/о +37.7 +21.4 39 +45 +45 опасность
перегрева
1004.2 1003.6
10 17.02 СЗ 5 н/о 3/0
[]
+37.2 +19.6 36 +42 +43 опасность
перегрева
1004.9 1004.3
12 17.02 Ю 3 н/о н/о +37.2 +13.9 25 +38 +38 душно 1006.8 1006.2
13 17.02 СЗ 4 н/о 4/0
[]
+36.7 +18.7 35 +41 +41 опасность
перегрева
1006.6 1006.0 +38.7
15 17.02 З 6 н/о н/о +33.9 +22.0 50 +43 +43 опасность
перегрева
1007.0 1006.4
16 17.02 З 7 н/о 3/0
[]
+32.0 +24.6 65 +45 +45 опасность
перегрева
1006.8 1006.2
18 17.02 З 8 н/о н/о +30.6 +23.5 66 +41 +41 опасность
перегрева
1006.1 1005.5
19 17.02 З 6 н/о 5/0
[]
+30.5 +23.2 65 +41 +41 опасность
перегрева
1005.7 1005.1
21 17.02 ЮЗ 6 н/о н/о +30.5 +20.4 55 +37 +37 очень
душно
1005.4 1004.8
22 17.02 штиль 0 н/о 6/0
[]
+29.9 +18.7 51 +35 +35 очень
душно
1006.6 1006.0
00 18.02 Ю 3 н/о н/о +31.8 +19.1 47 +37 +37 очень
душно
1007.4 1006.8
01 18.02 ЮЗ 3 н/о н/о +35.0 +17.2 35 +38 +38 очень
душно
1007.7 1007.1 +30.0
03 18.02 СЗ 6 н/о н/о +36.2 +20.8 41 +43 +43 опасность
перегрева
1007.4 1006.8
04 18.02 СЗ 7 н/о н/о +36.0 +21.1 42 +43 +43 опасность
перегрева
1007.2 1006.6
06 18.02 СЗ 7 н/о н/о +36.7 +22.4 44 +46 +46 опасность
перегрева
1006.0 1005.4
07 18.02 СЗ 8 н/о н/о +36.4 +21.4 42 +44 +44 опасность
перегрева
1005.5 1004.9
09 18.02 З 8 н/о н/о +34.6 +22.6 50 +44 +44 опасность
перегрева
1005.3 1004.7
10 18.02 З 9 н/о н/о +33.2 +22.0 52 +42 +42 опасность
перегрева
1005.4 1004.8
12 18.02 З 8 н/о н/о +31.6 +22.0 57 +40 +40 очень
душно
1006.7 1006.1
13 18.02 З 7 н/о 1/0
[]
+30.5 +24.4 70 +43 +43 опасность
перегрева
1007.6 1007.0 +38.8
15 18.02 З 7 н/о н/о +29.8 +25.5 78 +44 +44 опасность
перегрева
1007.7 1007.1
16 18.02 З 6 н/о н/о +29.8 +26.0 80 +45 +45 опасность
перегрева
1007.6 1007.0
18 18.02 З 6 н/о н/о +30.1 +24.9 74 +43 +43 опасность
перегрева
1007.1 1006.5
19 18.02 З 6 н/о н/о +30.0 +24.4 72 +42 +42 опасность
перегрева
1006.8 1006.2
21 18.02 З 7 н/о н/о +29.3 +21.5 63 +37 +37 очень
душно
1006.8 1006.2
22 18.02 З 7 н/о н/о +28.6 +19.8 59 +35 +35 очень
душно
1007.1 1006.5
00 19.02 З 7 н/о н/о +29.7 +20.5 58 +37 +37 очень
душно
1008.2 1007.6
01 19.02 З 5 н/о н/о +31.4 +20.4 52 +38 +38 очень
душно
1008.5 1007.9 +28.4
03 19.02 З 5 н/о н/о +35.2 +21.8 46 +43 +43 опасность
перегрева
1008.4 1007.8
04 19.02 СЗ 7 н/о н/о +35.2 +22.2 47 +44 +44 опасность
перегрева
1008.0 1007.4
06 19.02 СЗ 7 н/о н/о +34.4 +24.9 58 +48 +48 опасность
перегрева
1007.2 1006.6
07 19.02 СЗ 7 н/о 1/0
[]
+34.7 +23.7 53 +46 +49 опасность
перегрева
1006.7 1006.1
09 19.02 СЗ 8 н/о н/о +32.3 +25.1 66 +46 +46 опасность
перегрева
1006.3 1005.7
10 19.02 З 8 н/о н/о +31.6 +24.0 64 +43 +43 опасность
перегрева
1006.9 1006.3
12 19.02 СЗ 3 н/о н/о +30.7 +25.1 72 +44 +44 опасность
перегрева
1009.7 1009.0
13 19.02 СЗ 5 н/о н/о +30.9 +24.5 69 +44 +44 опасность
перегрева
1009.6 1008.9 +36.4
15 19.02 СЗ 6 н/о н/о +29.3 +24.6 76 +42 +42 опасность
перегрева
1009.5 1008.8
16 19.02 СЗ 5 н/о н/о +29.0 +24.8 78 +41 +41 опасность
перегрева
1009.3 1008.6
18 19.02 СЗ 5 н/о н/о +28.5 +25.5 84 +42 +42 опасность
перегрева
1008.8 1008.2
19 19.02 С 3 н/о 10/10 300 м
[]
+28.4 +25.2 83 +41 +41 опасность
перегрева
1009.5 1008.8
21 19.02 С 3 н/о н/о +28.1 +25.1 84 +41 +41 опасность
перегрева
1009.3 1008.6
22 19.02 СВ 3 н/о 9/9 300 м
[]
+27.7 +25.1 86 +40 +40 очень
душно
1010.0 1009.3
00 20.02 СВ 4 н/о н/о +29.3 +24.8 77 +42 +42 опасность
перегрева
1011.1 1010.4
01 20.02 СВ 4 н/о 1/1 300 м
[]
+30.1 +24.7 73 +43 +49 опасность
перегрева
1011.2 1010.5 +27.8
03 20.02 СВ 6 н/о н/о +32.3 +24.9 65 +46 +46 опасность
перегрева
1010.9 1010.2
04 20.02 СВ 6 н/о 1/0
[]
+32.3 +25.1 66 +46 +55 опасность
перегрева
1010.3 1009.6
06 20.02 СВ 7 н/о н/о +33.1 +25.4 64 +48 +48 опасность
перегрева
1008.9 1008.3
07 20.02 СВ 8 н/о 1/0
[]
+32.2 +25.0 66 +46 +48 опасность
перегрева
1008.8 1008.2
09 20.02 С 6 н/о н/о +31.3 +23.9 65 +43 +43 опасность
перегрева
1008.8 1008.2
10 20.02 С 7 н/о н/о +30.2 +24.6 72 +43 +43 опасность
перегрева
1008.2 1007.6
12 20.02 СЗ 2 н/о н/о +29.1 +24.7 77 +41 +41 опасность
перегрева
1010.9 1010.2
13 20.02 В 4 н/о 4/4 600 м
[]
+29.4 +24.5 75 +42 +42 опасность
перегрева
1012.3 1011.6 +34.2
15 20.02 С 4 н/о н/о +29.4 +23.8 72 +40 +40 очень
душно
1011.1 1010.4
16 20.02 С 4 н/о н/о +29.1 +24.0 74 +40 +40 очень
душно
1011.2 1010.5
18 20.02 СЗ 3 н/о н/о +28.6 +24.6 79 +41 +41 опасность
перегрева
1010.7 1010.0
19 20.02 СЗ 3 н/о н/о +28.4 +25.0 82 +41 +41 опасность
перегрева
1010.6 1009.9
21 20.02 З 4 н/о н/о +28.0 +24.8 83 +40 +40 очень
душно
1010.4 1009.7
22 20.02 З 4 н/о 1/1 300 м
[]
+27.8 +24.8 84 +40 +40 очень
душно
1010.9 1010.2
00 21.02 Ю 2 н/о н/о +28.9 +24.7 78 +41 +41 опасность
перегрева
1012.1 1011.4
01 21.02 СВ 3 н/о 3/3 300 м
[]
+30.5 +24.2 69 +42 +49 опасность
перегрева
1012.3 1011.6 +27.9
03 21.02 С 4 н/о н/о +32.6 +23.5 59 +44 +44 опасность
перегрева
1011.8 1011.1
04 21.02 СВ 4 н/о н/о +32.9 +23.2 57 +43 +43 опасность
перегрева
1011.0 1010.3
06 21.02 СВ 6 н/о н/о +33.4 +23.4 56 +44 +44 опасность
перегрева
1009.6 1008.9
07 21.02 С 5 н/о н/о +33.1 +24.6 61 +46 +46 опасность
перегрева
1009.0 1008.4
09 21.02 СЗ 6 н/о н/о +32.1 +23.6 61 +43 +43 опасность
перегрева
1008.3 1007.7
10 21.02 СЗ 6 н/о н/о +30.9 +24.8 70 +44 +44 опасность
перегрева
1008.4 1007.8
12 21.02 СЗ 5 н/о н/о +29.3 +25.5 80 +43 +43 опасность
перегрева
1009.9 1009.2
13 21.02 СЗ 5 н/о н/о +29.0 +25.8 83 +43 +43 опасность
перегрева
1010.2 1009.5 +34.5
15 21.02 СЗ 5 н/о н/о +28.7 +25.9 85 +43 +43 опасность
перегрева
1011.0 1010.3
16 21.02 З 5 н/о 3/3 300 м
[]
+28.8 +25.2 81 +42 +42 опасность
перегрева
1010.7 1010.0
18 21.02 СЗ 5 н/о н/о +28.3 +25.7 86 +42 +42 опасность
перегрева
1009.9 1009.2
19 21.02 СЗ 3 н/о н/о +28.2 +25.6 86 +42 +42 опасность
перегрева
1010.2 1009.5
21 21.02 СЗ 3 н/о н/о +28.0 +25.6 87 +41 +41 опасность
перегрева
1010.0 1009.3
22 21.02 СЗ 2 н/о 5/5 300 м
[]
+28.1 +25.3 85 +41 +41 опасность
перегрева
1010.6 1009.9
00 22.02 СЗ 3 н/о н/о +29.4 +24.9 77 +42 +42 опасность
перегрева
1011.1 1010.4
01 22.02 С 3 н/о н/о +30.6 +25.4 74 +45 +45 опасность
перегрева
1011.4 1010.7 +28.1
03 22.02 СЗ 4 н/о н/о +32.2 +24.0 62 +44 +44 опасность
перегрева
1010.8 1010.1
04 22.02 СЗ 4 н/о 1/0
[]
+33.4 +23.7 57 +45 +60 опасность
перегрева
1010.0 1009.3
06 22.02 С 5 н/о н/о +34.2 +22.3 50 +43 +43 опасность
перегрева
1009.3 1008.6
07 22.02 СЗ 5 н/о н/о +35.0 +20.9 44 +42 +42 опасность
перегрева
1008.8 1008.2
09 22.02 СЗ 5 н/о н/о +33.9 +19.6 43 +40 +40 очень
душно
1008.3 1007.7
10 22.02 СЗ 5 н/о н/о +32.7 +21.2 51 +40 +40 очень
душно
1008.6 1008.0
12 22.02 СЗ 4 н/о н/о +30.3 +23.2 66 +41 +41 опасность
перегрева
1010.2 1009.5
13 22.02 СЗ 5 н/о н/о +29.9 +23.6 69 +41 +41 опасность
перегрева
1010.5 1009.8 +35.9
15 22.02 З 5 н/о н/о +30.0 +22.4 64 +39 +39 очень
душно
1010.4 1009.7
16 22.02 З 4 н/о н/о +29.8 +20.9 59 +37 +37 очень
душно
1010.3 1009.6
18 22.02 З 5 н/о н/о +29.2 +25.0 78 +42 +42 опасность
перегрева
1009.0 1008.4
19 22.02 З 6 н/о н/о +28.9 +25.7 83 +43 +43 опасность
перегрева
1008.6 1008.0
21 22.02 ЮЗ 3 н/о н/о +26.9 +25.1 90 +39 +39 очень
душно
1008.8 1008.2
22 22.02 ЮЗ 4 н/о н/о +27.7 +22.9 75 +37 +37 очень
душно
1008.7 1008.1
00 23.02 З 4 н/о н/о +29.5 +22.5 66 +39 +39 очень
душно
1008.8 1008.2
01 23.02 ЮЗ 3 н/о н/о +31.3 +22.3 59 +40 +40 очень
душно
1009.4 1008.7 +26.8
03 23.02 СВ 4 н/о н/о +35.8 +20.1 40 +42 +42 опасность
перегрева
1009.3 1008.6
04 23.02 СВ 5 н/о н/о +35.6 +20.3 41 +42 +42 опасность
перегрева
1008.7 1008.1
06 23.02 СЗ 6 н/о н/о +36.3 +18.8 36 +41 +41 опасность
перегрева
1007.4 1006.8
07 23.02 С 6 н/о 1/0
[]
+35.8 +20.1 40 +42 +47 опасность
перегрева
1006.9 1006.3
09 23.02 СЗ 7 н/о н/о +34.8 +21.8 47 +43 +43 опасность
перегрева
1006.5 1005.9
10 23.02 СЗ 7 н/о н/о +33.1 +20.3 47 +40 +40 очень
душно
1006.9 1006.3
12 23.02 З 6 н/о н/о +31.5 +23.6 63 +43 +43 опасность
перегрева
1008.1 1007.5
13 23.02 З 6 н/о н/о +31.5 +23.9 64 +43 +43 опасность
перегрева
1008.2 1007.6 +37.7
15 23.02 Ю 2 н/о н/о +30.2 +22.6 64 +40 +40 очень
душно
1008.9 1008.3
16 23.02 З 3 н/о н/о +30.5 +22.9 64 +40 +40 очень
душно
1008.2 1007.6
18 23.02 З 3 н/о н/о +30.5 +24.4 70 +43 +43 опасность
перегрева
1006.9 1006.3
19 23.02 З 2 н/о 10/0
[]
+30.0 +23.7 69 +41 +41 опасность
перегрева
1006.5 1005.9
21 23.02 З 4 н/о н/о +30.2 +26.1 79 +46 +46 опасность
перегрева
1007.0 1006.4
22 23.02 З 3 н/о 10/0
[]
+29.7 +25.9 80 +44 +44 опасность
перегрева
1007.8 1007.2
01 24.02 В 3 н/о н/о +34.7 +22.7 50 +44 +44 опасность
перегрева
1008.7 1008.1 +29.5

 

Местоположение метеостанции Каррата (Западная Австралия, Австралия): широта -20.72 долгота 116.77 высота над уровнем моря 6 м.

В архиве по умолчанию представлена погода в Каррате за последнюю неделю. Архивные данные за месяц целиком и за предыдущие месяцы, начиная с января 2011 года, Вы можете получить, выбрав интересующий диапазон дат из раскрывающегося списка и нажав кнопку "Ввод!".


*Определитесь, кто Вы:
робот инопланетянин человек

Внимание! Время в таблицах - всемирное. Для получения местного времени необходимо прибавить поправку, которая равна 8 ч.

Смотрите также архив погоды в соседних городах и на ближайших метеорологических станциях:

Погода в Роборне (Западная Австралия, Австралия) (40 км)
Погода в Марди (Западная Австралия, Австралия) (98 км)
Погода на Острове Варанас (Западная Австралия, Австралия) (125 км)
Погода в Барроу-Айленд (Западная Австралия, Австралия) (144 км)
Погода в Порт-Хедленде (Западная Австралия, Австралия) (198 км)
Погода на Острове Тевенард (Западная Австралия, Австралия) (199 км)
Погода в Онслоу (Западная Австралия, Австралия) (201 км)
Погода в Параберду (Западная Австралия, Австралия) (291 км)
Погода в Марбл-баре (Западная Австралия, Австралия) (314 км)
Погода в Лермонте (Западная Австралия, Австралия) (325 км)

Пояснения к столбцам:

Ветер - указаны скорость ветра в м/с - средняя за 10 мин, порывы в срок и между сроками (в фигурных скобках) и направление, откуда дует ветер: С - северный, СВ - северо-восточный, В - восточный, ЮВ - юго-восточный, Ю - южный, ЮЗ - юго-западный, З - западный, СЗ - северо-западный.
Видимость - горизонтальная дальность видимости в метрах или километрах. При видимости от 1 до 10 км при отсутствии осадков обычно наблюдается дымка, при ухудшении видимости до 1 км и менее - туман. В сухую погоду видимость может ухудшаться дымом, пылью или мглою.
Явления - указаны атмосферные явления, наблюдавшиеся в срок или в последний час перед сроком; фигурными скобками обозначены явления, наблюдавшиеся между сроками (за 1-3 часа до срока); квадратными скобками обозначены град или гололедные отложения с указанием их диаметра в мм.
Облачность - указаны через наклонную черту общая и нижняя облачность в баллах и высота нижней границы облаков в метрах; квадратными скобками обозначены формы облаков: Ci - перистые, Cs - перисто-слоистые, Cc - перисто-кучевые, Ac - высококучевые, As - высокослоистые, Sc - слоисто-кучевые, Ns - слоисто-дождевые, Cu - кучевые, Cb - кучево-дождевые. Подробнее классификацию облаков см. в Атласе облаков (PDF).
T - Температура воздуха - температура, измеренная на высоте 2 м над землей.
Td - Температура точки росы - температура, при понижении до которой содержащийся в воздухе водяной пар достигнет насыщения.
f - Относительная влажность воздуха - влажноcть воздуха, измеренная на высоте 2 м над землей.
Te - Эффективная температура - температура, которую ощущает одетый по сезону человек в тени. Характеристика душности погоды. При расчете учитывается влияние влажности воздуха и скорости ветра на теплоощущения человека.
Tes - Эффективная температура на солнце - температура, которую ощущает человек, с поправкой на солнечный нагрев. Характеристика знойности погоды. Зависит от высоты солнца над горизонтом, облачности и скорости ветра. Ночью, в пасмурную погоду, а также при ветре 12 м/с и более поправка равна нулю.
P - Атмосферное давление - приведенное к уровню моря атмосферное давление.
Po - Атмосферное давление - измеренное на уровне метеостанции атмосферное давление.
Tmin - Минимальная температура - минимум температуры воздуха на высоте 2 м над землей.
Tmax - Максимальная температура - максимум температуры воздуха на высоте 2 м над землей.
R - Количество осадков - Количество выпавших осадков за период времени, мм. При наведении курсора мыши на число - период времени, за который выпало указанное количество осадков.
R24 - Количество осадков - Количество выпавших осадков за 24 часа, мм.
S - Снежный покров - Высота снежного покрова, см. При наведении курсора мыши на число - состояние снежного покрова и степень покрытия местности в баллах.